Tracking 20475 objects as of 27-Feb-2020
HD Live streaming from Space Station
objects crossing your sky now

INTELSAT 602

Track INTELSAT 602 now!
INTELSAT 602 is classified as:


NORAD ID: 20315
Int'l Code: 1989-087A
Perigee: 36,143.3 km
Apogee: 36,159.4 km
Inclination: 13.0 °
Period: 1,454.4 minutes
Semi major axis: 42522 km
RCS: 19.9526 m2 (large)
Launch date: October 27, 1989
Source: International Telecommunications Satellite Organization (ITSO)
Launch site: FRENCH GUIANA (FRGUI)

Inclined orbit; Indian Ocean region; C-band and Ku-band broadcasting.
aabbcc
Your satellite tracking list
Your tracking list is empty




NASA's NSSDC Master Catalog

Two Line Element Set (TLE):
1 20315U 89087A   20057.24401015 -.00000289 +00000-0 +00000-0 0  9994
2 20315 013.0121 024.0297 0001891 329.6105 044.4278 00.99009542108523
Source of the keplerian elements: AFSPC